Home   Weather   Bensheim   Past weeks

Flag for Germany Past Weather in Bensheim, Hesse, Germany — Yesterday and Last 2 Weeks

52 °F

Drizzle. Fog.

Feels Like: 51 °F
Forecast: 50 / 59 °F
Wind: 3 mph from East

Location: Mannheim City

Current Time: Oct 24, 2016 at 10:49:22 AM

Latest Report: Oct 24, 2016 at 9:50 AM

Visibility: 3 mi

Pressure: 29.92 "Hg

Humidity: 100%

Dew Point: 52 °F

Location of BensheimLocation

Past Weather in Bensheim — Graph


Bensheim Temperature Yesterday

Maximum temperature yesterday: 54 °F (at 3:20 PM)
Minimum temperature yesterday: 39 °F (at 6:50 AM)
Average temperature yesterday: 47 °F

High & Low Weather Summary for the Past Weeks

High63 °F (Oct 15, 5:50 PM)100% (Oct 9, 9:20 AM)30.24 "Hg (Oct 9, 9:20 AM)
Low39 °F (Oct 13, 5:20 AM)51% (Oct 11, 2:20 PM)29.65 "Hg (Oct 14, 5:50 PM)
Average50 °F85%30.03 "Hg
* Reported Oct 9 9:20 AM — Oct 24 9:50 AM, Bensheim, Weather by CustomWeather, © 2016

Note: Actual official high and low records may vary slightly from our data, if they occured in-between our weather recording intervals... More about our weather records


Bensheim Weather History for the Previous 24 Hours

Scroll right to see more
Time TempWeatherWind HumidityBarometerVisibility
9:50 AM
Mon, Oct 24
52 °FDrizzle. Fog.3 mph100%29.92 "Hg2 mi
9:20 AM52 °FDrizzle. Fog.2 mph100%29.92 "Hg3 mi
8:50 AM52 °FDrizzle. Fog.5 mph100%29.92 "Hg3 mi
8:20 AM52 °FDrizzle. Mostly cloudy.2 mph100%29.89 "Hg4 mi
7:50 AM52 °FDrizzle. Overcast.2 mph100%29.89 "Hg5 mi
7:20 AM50 °FDrizzle. Overcast.5 mph100%29.89 "Hg4 mi
6:50 AM50 °FDrizzle. Fog.6 mph100%29.89 "Hg3 mi
6:20 AM50 °FLight rain. Fog.5 mph100%29.89 "Hg2 mi
5:50 AM50 °FLight rain. Fog.3 mph100%29.89 "Hg2 mi
9:50 PM
Sun, Oct 23
50 °FOvercast.2 mph100%29.86 "Hg4 mi
9:20 PM50 °FOvercast.1 mph100%29.86 "HgN/A
8:50 PM50 °FOvercast.1 mph100%29.86 "HgN/A
8:20 PM50 °FOvercast.No wind100%29.86 "HgN/A
7:50 PM50 °FPassing clouds.3 mph100%29.86 "HgN/A
7:20 PM50 °FMostly cloudy.3 mph100%29.86 "HgN/A
6:50 PM50 °FPartly cloudy.2 mph94%29.86 "HgN/A
6:20 PM52 °FClear.3 mph88%29.86 "Hg10 mi
5:50 PM52 °FSunny.2 mph82%29.86 "Hg10 mi
5:20 PM52 °FSunny.3 mph82%29.86 "Hg10 mi
4:50 PM54 °FSunny.2 mph72%29.86 "Hg10 mi
4:20 PM54 °FSunny.No wind72%29.86 "Hg10 mi
3:50 PM54 °FSunny.2 mph72%29.86 "Hg10 mi
3:20 PM54 °FClear.2 mph72%29.86 "Hg5 mi
2:50 PM52 °FScattered clouds.3 mph77%29.89 "Hg5 mi
2:20 PM52 °FPassing clouds.3 mph82%29.89 "Hg5 mi
1:50 PM48 °FScattered clouds.3 mph94%29.89 "Hg5 mi
1:20 PM48 °FScattered clouds.3 mph100%29.89 "Hg5 mi
12:50 PM46 °FPartly sunny.5 mph100%29.89 "Hg4 mi
12:20 PM45 °FFog.5 mph100%29.92 "Hg2 mi
11:50 AM43 °FFog.5 mph100%29.92 "Hg2 mi
11:20 AM43 °FFog.5 mph100%29.92 "Hg2 mi
10:50 AM43 °FFog.5 mph100%29.92 "Hg2 mi
10:20 AM41 °FFog.3 mph100%29.92 "Hg1 mi
Weather by CustomWeather, © 2016

See weather overviewHow to use our weather pages